Regional Weather Roundup
Issued by NWS Grand Forks, ND

Home | Current Version | Previous Version | Text Only | Print | Product List | Glossary On
Versions: 1 2 3 4 5 6 7 8 9 10 11 12 13 14 15 16 17 18 19 20 21 22 23 24 25 26 27 28 29 30 31 32 33 34 35 36 37 38 39 40 41 42 43 44 45 46 47 48 49 50
000
ASUS43 KFGF 280331
RWRFGF
PRAIRIE TO PINES  WEATHER ROUNDUP
NATIONAL WEATHER SERVICE EASTERN NORTH DAKOTA/GRAND FORKS ND
1000 PM CDT FRI MAY 27 2016

 **SATELLITE DATA USED TO AUGMENT SKY COVER AT AUTOMATED STATIONS**
 *****  WEATHER ACROSS EASTERN NORTH DAKOTA  *****

CITY           SKY/WX    TMP DP  RH WIND       PRES   REMARKS
GRAND FORKS    MOCLDY    67  59  75 E9        29.77R
GRAND FRKS AFB CLOUDY    67  57  70 E7        29.78S
GRAND FRKS NWS   N/A     63 N/A N/A E16         N/A
DEVILS LAKE    MOCLDY    61  57  87 N10       29.83R
FARGO          CLOUDY    63  59  87 NE8       29.78R
WAHPETON ARPT  CLOUDY    63  55  77 SE7       29.79R
$$

 ***** WEATHER ACROSS CENTRAL AND WESTERN NORTH DAKOTA  *****

CITY           SKY/WX    TMP DP  RH WIND       PRES   REMARKS
BISMARCK       MOCLDY    62  52  69 NE6       29.81R
MINOT          MOCLDY    60  55  83 N8        29.84R
JAMESTOWN      CLOUDY    62  57  83 S3        29.78R
MINOT AFB      CLOUDY    59  55  86 NE12      29.84R
GARRISON         N/A     61  52  72 CALM      29.82R
WILLISTON      CLOUDY    59  51  75 N6        29.84S
DICKINSON      CLEAR     54  43  66 NE6       29.82R
HETTINGER      CLEAR     53  45  74 CALM      29.84R
$$

 *****  OTHER AIRPORT OBSERVATIONS IN OUR AREA  *****

CITY           SKY/WX    TMP DP  RH WIND       PRES   REMARKS
WALHALLA       FAIR      59  59 100 N14       29.85R
GRAFTON AIRPOR FAIR      63  61  94 SE7       29.81R
VALLEY CITY AR CLOUDY    61  61 100 NW3       29.81R
CANDO          CLOUDY    57  57 100 NE15G22   29.87S
CAVALIER APRT  FAIR      61  59  94 N12G17    29.83R
GWINNER        CLOUDY    61  59  94 NE6       29.78R
ROLLA          CLOUDY    54  54 100 NE14      29.90R
 ***** THE ABOVE OBSERVATIONS ARE NON NWS ARE NOT QUALITY
       CONTROLLED AND MAY MIS-REPORT RAIN FOR SNOW...
$$

  *****  WEATHER ACROSS NORTHERN MINNESOTA  *****

CITY           SKY/WX    TMP DP  RH WIND       PRES   REMARKS
FLAG ISLAND    CLOUDY    63  57  82 E3        29.86R HAZE
WARROAD        CLOUDY    61  57  88 SE5       29.86R
ROSEAU         CLOUDY    63  57  82 SE6       29.84S
HALLOCK        CLOUDY    64  59  82 SE6       29.81R
THF RVR FALLS  CLOUDY    63  54  72 SE5       29.83S
BAUDETTE       PTCLDY    59  54  83 E7        29.86R
WASKISH        MOCLDY    57  55  94 CALM      29.85S
CROOKSTON      CLOUDY    63  61  94 S7        29.81S
STEPHEN NDAWN    N/A     64  61  88 SE8         N/A
GREENBUSH NDAW   N/A     63  59  88 SE9         N/A
$$
  *****  WEATHER ACROSS CENTRAL AND WEST MINNESOTA  *****

CITY           SKY/WX    TMP DP  RH WIND       PRES   REMARKS
FOSSTON        PTCLDY    59  55  88 CALM      29.82F
BEMIDJI        PTCLDY    56  53  88 CALM      29.83S
PARK RAPIDS    CLOUDY    61  55  81 NE3       29.80S
ELBOW LAKE     FAIR      60  58  93 E6        29.79R
WADENA         CLOUDY    57  54  88 CALM      29.80R
DETROIT LAKES  CLOUDY    61  54  77 E3        29.81S
MOORHEAD       CLOUDY    63  61  94 NE5       29.80R
FERGUS FALLS   PTCLDY    63  55  77 E6        29.75R
MORRIS MN      CLOUDY    63  59  88 E10       29.77R
STAPLES        PTCLDY    57  55  94 CALM      29.80S
$$
  *****  WEATHER ELSEWHERE ACROSS MINNESOTA  *****

CITY           SKY/WX    TMP DP  RH WIND       PRES   REMARKS
DULUTH         CLOUDY    53  51  93 E14       29.81F
INTRNTL FALLS  CLOUDY    61  53  75 NE5       29.86R
ELY            CLOUDY    55  54  94 CALM      29.85S
CLOQUET        CLOUDY    54  52  94 E6        29.80F FOG
WHEATON        PTCLDY    63  57  82 S3        29.79R
BRAINERD       MOCLDY    59  57  93 E5        29.79S
HIBBING        CLOUDY    58  55  90 NE3       29.83R
ALEXANDRIA     CLOUDY    59  57  93 E7        29.80R
SAINT CLOUD    CLOUDY    58  57  97 VRB6      29.77R
MINNEAPOLIS    CLOUDY    64  60  87 N5        29.75R
$$

  *****  WEATHER ACROSS SOUTH DAKOTA  *****

CITY           SKY/WX    TMP DP  RH WIND       PRES   REMARKS
SIOUX FALLS    MOCLDY    64  57  78 N6        29.74R
BROOKINGS      PTCLDY    63  56  78 N9        29.76R
WATERTOWN      PTCLDY    59  54  83 N5        29.78R
HURON          MOCLDY    61  58  90 N7        29.77R
SISSETON         N/A     59  56  89 N5        29.77R
ABERDEEN       CLOUDY    63  60  90 NE10      29.77R
MITCHELL       CLOUDY    66  60  81 NW7       29.76R
PIERRE         MOCLDY    57  52  83 N7        29.78R
MOBRIDGE       CLOUDY    60  51  72 N5        29.76S
RAPID CITY     MOCLDY    56  48  74 W5        29.83F
$$

  *****  SOME WEATHER IN NEARBY STATES *****

CITY           SKY/WX    TMP DP  RH WIND       PRES   REMARKS
GLASGOW MT     CLOUDY    60  50  69 NE14      29.83R
GREAT FALLS MT CLOUDY    55  39  54 NE8       29.91R
CHEYENNE WY    MOCLDY    46  41  82 SW8       29.97R
SCOTTSBLUFF NE CLOUDY    53  45  74 NW3       29.88R
OMAHA NE       TSTM      72  63  73 SE16      29.72R
DES MOINES IA  LGT RAIN  71  64  78 SE8       29.76R
DAVENPORT IA   CLOUDY    73  67  81 S10       29.78R
CHICAGO IL     LGT RAIN  71  65  81 S17       29.87R
EAU CLAIRE WI  CLOUDY    65  64  97 S5        29.73S
LA CROSSE WI   CLOUDY    69  67  93 SE6       29.74R FOG
$$

  *****  SOME NATIONAL WEATHER *****

CITY           SKY/WX    TMP DP  RH WIND       PRES   REMARKS
LA GUARDIA NY  PTCLDY    75  67  76 S12       30.04S
RALEIGH NC     PTCLDY    74  56  53 S6        30.15R
ATLANTA GA     PTCLDY    77  61  57 E6        30.08R
NEW ORLEANS LA CLOUDY    79  69  71 SE8       29.96R
OKLAHOMA CITY  CLEAR     63  57  81 S10       29.75R
ALBUQUERQUE NM MOCLDY    70  24  17 NW14      29.94R
SALT LAKE CITY LGT RAIN  64  43  46 W6G22     29.93R
LOS ANGELES CA MOCLDY    61  55  81 W8        29.88R
BOISE ID       CLEAR     64  26  23 N10       29.93R
SEATTLE WA     MOCLDY    58  40  51 SW14      30.12S
$$

*** WEATHER ACROSS MANITOBA...SASKATCHEWAN AND ONTARIO ***
                ***ONTARIO***

CITY           SKY/WX    TMP DP  RH WIND       PRES   REMARKS
GERALDTON      CLOUDY    63  55  77 S6        29.94R
THUNDER BAY    LGT RAIN  50  48  93 VRB2      29.90S
SIOUX LOOKOUT  MOCLDY    61  55  82 N5        29.91R
TORONTO        MOCLDY    73  63  68 NW8       29.99R
BIG TROUT LK   CLOUDY    41  37  87 NE10G20   30.14S
PICKLE LAKE    NOT AVBL
DRYDEN         CLOUDY    61  59  94 E3        29.90R
KENORA         MOCLDY    61  59  94 E6        29.89R
$$
                *** MANITOBA***

CITY           SKY/WX    TMP DP  RH WIND       PRES   REMARKS
BRANDON        CLOUDY    54  50  87 NE13      29.91R
DAUPHIN        CLOUDY    50  45  81 N10       29.98R
ISLAND LAKE    CLOUDY    43  37  81 NE13G18   30.13R
PILOT MOUND      N/A     55  54  94 N13         N/A
THE PAS        CLOUDY    50  39  66 E7        30.07
THOMPSON       CLOUDY    41  34  75 NE9       30.19
WINNIPEG       PTCLDY    57  55  94 NE15G22   29.86R
LYNN LAKE      CLEAR     46  34  61 E12G17    30.13R
CHURCHILL      CLOUDY    30  27  86 E9        30.35S WCI  22
$$
                ***SASKATCHEWAN***

CITY           SKY/WX    TMP DP  RH WIND       PRES   REMARKS
ESTEVAN        PTCLDY    55  54  94 E9        29.88R
KINDERSLEY     TSTM      57  52  82 SW2       29.85R
LLOYDMINSTER   CLOUDY    55  52  88 E8        29.84R
PRINCE ALBERT  MOCLDY    55  46  71 E15G21    29.93R
REGINA         MOCLDY    63  50  63 E10       29.89R
YORKTON        CLEAR     50  45  81 NE12      29.94R
N. BATTLEFORD  CLEAR     61  50  67 E20       29.87R
LA RONGE       PTCLDY    52  39  62 E9        30.00R
SASKATOON      MOCLDY    63  48  59 S9        29.89R
SWIFT CURRENT  PTCLDY    57  50  77 SE12      29.84S
$$
NOTE: THESE ARE AUTOMATED STATIONS WITH LIMITED QUALITY CONTROL
      "FAIR" INDICATES FEW OR NO CLOUDS BELOW 12,000 FEET WITH NO
      SIGNIFICANT WEATHER AND/OR OBSTRUCTIONS TO VISIBILITY.
      SKY/WX - SKY CONDITION AND SIGNIFICANT WEATHER.
      TMP - AIR TEMPERATURE.    DP   - DEWPOINT TEMPERATURE.
      RH  - RELATIVE HUMIDITY.  PRES - PRESSURE.
      HX  - HEAT INDEX.         WCI  - WIND CHILL INDEX.
$



USA.gov is the U.S. government's official web portal to all federal, state and local government web resources and services.